Location: Unspecified
(0.0000°N, 0.0000°E)
Time: 18:46:52
(UTC+00:00)

Tiangong 1 - Pass Details

Date: 19 November 2017
Orbit: 285 x 308 km, 42.8° (Epoch: 20 November)

Event Time Altitude Azimuth Distance (km) Brightness Sun altitude
Exits shadow 04:41:24 - 9° (N) 1,351 3.7 -15.1°
Reaches altitude 10° 04:43:02 10° 42° (NE) 1,127 3.7 -14.7°
Maximum altitude 04:43:10 10° 45° (NE) 1,126 3.7 -14.6°
Drops below altitude 10° 04:43:18 10° 48° (NE) 1,128 3.8 -14.6°
Sets 04:46:53 0° 101° (E) 1,959 6.5 -13.8°
